DW0835 Weather Reports


Display with metric or nautical units.
time (UTC)temp
F
wind
direction
speed
MPH
gust
MPH
rain 1hr
in
rain 24hr
in
rain mn
in
humidity
%
barometer
mb
20180925224143 70 317 0.0 4.0 0.13 0.13 0.13 85 1008.0
20180925222642 72 229 0.0 4.0 0.08 0.08 0.08 81 1007.7
20180925221141 74 256 0.0 3.0 0.03 0.03 0.03 77 1007.5
20180925215640 76 80 0.0 1.0 0.01 0.01 0.01 74 1007.1
20180925214141 78 314 0.0 1.0 0.00 0.00 0.00 68 1007.1
20180925212639 79 275 0.0 3.0 0.00 0.00 0.00 57 1006.9
20180925211142 79 258 0.0 3.0 0.00 0.00 0.00 55 1006.9
20180925205640 80 261 0.0 3.0 0.00 0.00 0.00 53 1007.0
20180925204137 80 263 0.0 4.0 0.00 0.00 0.00 54 1007.0
20180925202635 80 288 0.0 3.0 0.00 0.00 0.00 55 1007.0
20180925201136 80 269 0.0 3.0 0.00 0.00 0.00 56 1007.1
20180925195634 80 273 0.0 7.0 0.00 0.00 0.00 56 1007.6
20180925194130 79 49 0.0 4.0 0.00 0.00 0.00 60 1008.0
20180925192631 80 339 0.0 4.0 0.00 0.00 0.00 61 1008.6
20180925191128 79 286 0.0 2.0 0.00 0.00 0.00 66 1009.1
20180925185628 79 360 0.0 2.0 0.00 0.00 0.00 71 1009.2
20180925184126 79 311 0.0 4.0 0.00 0.00 0.00 66 1009.7
20180925182625 78 323 0.0 3.0 0.00 0.00 0.00 67 1009.7
20180925181121 76 263 0.0 3.0 0.00 0.00 0.00 72 1009.8
20180925175616 73 65 0.0 0.0 0.00 0.00 0.00 81 1010.0
20180925174115 73 65 0.0 1.0 0.00 0.00 0.00 82 1010.2
20180925172615 73 16 0.0 2.0 0.00 0.00 0.00 83 1010.2
20180925171112 73 90 0.0 1.0 0.00 0.00 0.00 82 1010.2
20180925165615 73 109 0.0 3.0 0.00 0.00 0.00 82 1010.3
20180925164110 73 355 0.0 0.0 0.00 0.00 0.00 82 1010.4
20180925162609 74 355 0.0 1.0 0.00 0.00 0.00 80 1010.5
20180925161108 74 257 0.0 1.0 0.00 0.00 0.00 80 1010.6
20180925155605 74 257 0.0 3.0 0.00 0.00 0.00 81 1010.6
20180925154108 73 254 0.0 3.0 0.00 0.00 0.00 81 1010.8
20180925152603 73 252 0.0 4.0 0.00 0.00 0.00 84 1010.8
20180925151058 71 263 0.0 5.0 0.00 0.00 0.00 86 1011.1
20180925145554 70 25 0.0 4.0 0.00 0.00 0.00 88 1011.3
20180925144051 69 307 0.0 4.0 0.00 0.00 0.00 90 1011.4
20180925142549 68 284 0.0 2.0 0.00 0.00 0.00 91 1011.4
20180925141045 68 236 0.0 4.0 0.00 0.00 0.00 92 1011.4
20180925135542 67 282 0.0 2.0 0.00 0.00 0.00 93 1011.3
20180925134042 67 271 0.0 2.0 0.00 0.00 0.00 94 1011.3
20180925132537 66 257 0.0 2.0 0.00 0.00 0.00 94 1011.4
20180925131036 66 250 0.0 2.0 0.00 0.00 0.00 94 1011.5
20180925125541 66 250 0.0 0.0 0.00 0.00 0.00 94 1011.6
20180925124042 65 271 0.0 0.0 0.00 0.00 0.00 94 1011.4
20180925122534 65 219 0.0 1.0 0.00 0.00 0.00 94 1011.7
20180925121035 64 259 0.0 1.0 0.00 0.00 0.00 94 1011.8
20180925115533 64 259 0.0 0.0 0.00 0.00 0.00 94 1011.8
20180925114032 64 259 0.0 1.0 0.00 0.00 0.00 94 1011.7
20180925112528 64 259 0.0 2.0 0.00 0.00 0.00 94 1011.6
20180925111028 64 259 0.0 2.0 0.00 0.00 0.00 94 1011.8
20180925105527 64 284 0.0 0.0 0.00 0.00 0.00 94 1011.6
20180925104026 64 255 0.0 1.0 0.00 0.00 0.00 94 1011.5
20180925102527 64 252 0.0 1.0 0.00 0.00 0.00 94 1011.4
20180925101026 64 252 0.0 0.0 0.00 0.00 0.00 94 1011.5
20180925095525 64 252 0.0 1.0 0.00 0.00 0.00 93 1011.4
20180925094026 64 252 0.0 0.0 0.00 0.00 0.00 93 1011.2
20180925092528 64 252 0.0 0.0 0.00 0.00 0.00 93 1011.3
20180925091024 64 252 0.0 0.0 0.00 0.00 0.00 93 1011.2
20180925085528 64 252 0.0 0.0 0.00 0.00 0.00 93 1011.3
20180925084121 64 252 0.0 0.0 0.00 0.00 0.00 93 1011.4
20180925082519 64 252 0.0 0.0 0.00 0.00 0.00 92 1011.4
20180925081021 65 252 0.0 0.0 0.00 0.00 0.00 92 1011.6
20180925075516 65 252 0.0 0.0 0.00 0.00 0.00 92 1011.9
20180925074015 65 252 0.0 0.0 0.00 0.00 0.00 93 1011.9
20180925072518 65 252 0.0 0.0 0.00 0.00 0.00 93 1012.0
20180925071014 66 252 0.0 1.0 0.00 0.00 0.00 92 1011.9
20180925065513 66 252 0.0 1.0 0.00 0.00 0.00 93 1011.9
20180925064014 66 252 0.0 0.0 0.00 0.00 0.00 92 1011.9
20180925062511 66 252 0.0 0.0 0.00 0.00 0.00 92 1011.9
20180925061011 66 252 0.0 2.0 0.00 0.00 0.00 92 1011.9
20180925055512 66 256 0.0 1.0 0.00 0.00 0.00 92 1011.9
20180925054008 66 306 0.0 0.0 0.00 0.00 0.00 92 1012.0
20180925052503 66 255 0.0 1.0 0.00 0.00 0.00 92 1012.3
20180925051002 66 39 0.0 1.0 0.00 0.00 0.00 92 1012.5
20180925045459 66 325 0.0 1.0 0.00 0.00 0.00 92 1012.7
20180925043958 66 325 0.0 1.0 0.00 0.00 0.00 92 1013.0
20180925042457 66 265 0.0 0.0 0.00 0.00 0.00 92 1013.0
20180925040957 66 265 0.0 0.0 0.00 0.00 0.00 92 1013.1
20180925035459 66 264 0.0 2.0 0.00 0.00 0.00 92 1013.1
20180925033956 66 284 0.0 2.0 0.00 0.00 0.00 92 1013.2
20180925032455 66 304 0.0 0.0 0.00 0.00 0.00 92 1013.0
20180925030955 66 5 0.0 1.0 0.00 0.00 0.00 92 1013.0
20180925025455 66 9 0.0 1.0 0.00 0.00 0.00 92 1013.1
20180925023956 66 15 0.0 1.0 0.00 0.00 0.00 93 1013.1
20180925022452 66 16 0.0 0.0 0.00 0.00 0.00 93 1013.0
20180925020954 66 16 0.0 0.0 0.00 0.00 0.00 93 1013.1
20180925015451 66 16 0.0 0.0 0.00 0.00 0.00 92 1013.2
20180925013950 65 16 0.0 0.0 0.00 0.00 0.00 92 1013.1
20180925012451 65 16 0.0 0.0 0.00 0.00 0.00 92 1013.1
20180925010950 65 16 0.0 1.0 0.00 0.00 0.00 92 1013.1
20180925005448 65 98 0.0 0.0 0.00 0.00 0.00 91 1013.1
20180925003950 65 98 0.0 1.0 0.00 0.00 0.00 91 1013.1
20180925002446 65 98 0.0 0.0 0.00 0.00 0.00 90 1013.1
20180925000949 65 98 0.0 0.0 0.00 0.00 0.00 89 1013.3
20180924235448 65 98 0.0 1.0 0.00 0.00 0.00 88 1013.6
20180924233943 66 98 0.0 0.0 0.00 0.00 0.00 87 1013.5
20180924232443 66 98 0.0 0.0 0.00 0.00 0.00 86 1013.5
20180924230944 66 98 0.0 0.0 0.00 0.00 0.00 85 1013.6
20180924225442 66 98 0.0 0.0 0.00 0.00 0.00 85 1013.6